Flag for U.S.A. Weather past 2 weeks in Winston-Salem, North Carolina, U.S.A.

Now
50 °F

Sunny.


Feels Like: 46 °F
Forecast: 38 / 53 °F
Wind: 9 mph from Northwest

Location: Smith Reynolds Airport

Current Time: Mar 2, 2015 at 10:43:49 AM

Latest Report: Mar 2, 2015 at 9:54 AM


Visibility: 10 mi

Pressure: 30.25 "Hg

Humidity: 74%

Dew point: 42 °F

Location of Winston-SalemLocation

Historic Weather in Winston-Salem — Graph

°F

Winston-Salem temperature yesterday

Maximum temperature yesterday: 39 °F (at 5:54 PM)
Minimum temperature yesterday: 29 °F (at 5:54 AM)
Average temperature yesterday: 33 °F

Past Weeks' High & Low Weather Summary

 TemperatureHumidityPressure
High57 °F (Feb 22, 3:54 PM)97% (Mar 2, 5:54 AM)30.78 "Hg (Mar 2, 5:54 AM)
Low5 °F (Feb 20, 3:54 AM)19% (Feb 15, 1:54 PM)29.74 "Hg (Feb 26, 3:54 AM)
Average29 °F60%30.21 "Hg
* Reported Feb 15 8:54 AM — Mar 2 8:54 AM, Winston-Salem, Weather by CustomWeather, © 2015

Note: Actual official high and low records may vary slightly from our data, if they occured in-between our weather recording intervals... More about our weather records

Advertising

Winston-Salem weather history for previous 24 hours

 ConditionsComfort  
Time TempWeatherWind HumidityBarometerVisibility
8:54 AM
Mon, Mar 2
42 °FFog.3 mph92%30.25 "Hg4 mi
7:54 AM38 °FFog.3 mph97%30.22 "Hg0 mi
6:54 AM38 °FFog.5 mph93%30.20 "Hg0 mi
5:54 AM38 °FFog.6 mph97%30.19 "Hg0 mi
5:01 AM38 °FFog.6 mph93%30.18 "Hg0 mi
4:54 AM38 °FFog.7 mph93%30.19 "Hg0 mi
3:54 AM37 °FFog.6 mph96%30.19 "Hg0 mi
2:54 AM37 °FFog.7 mph96%30.21 "Hg0 mi
1:54 AM37 °FFog.5 mph93%30.24 "Hg0 mi
12:54 AM37 °FFog.8 mph93%30.26 "Hg1 mi
11:54 PM
Sun, Mar 1
37 °FFog.6 mph93%30.29 "Hg1 mi
11:04 PM37 °FFog.5 mph93%30.30 "Hg2 mi
10:54 PM37 °FFog.5 mph93%30.32 "Hg2 mi
9:54 PM37 °FFog.7 mph89%30.33 "Hg4 mi
8:54 PM37 °FFog.3 mph89%30.34 "Hg5 mi
7:54 PM37 °FFog.6 mph89%30.33 "Hg6 mi
6:54 PM38 °FLow clouds.No wind86%30.37 "Hg7 mi
5:54 PM39 °FOvercast.No wind82%30.37 "Hg6 mi
4:54 PM38 °FLow clouds.No wind83%30.38 "Hg7 mi
3:54 PM37 °FLight freezing rain. Mostly cloudy.No wind86%30.39 "Hg8 mi
2:54 PM34 °FLight freezing rain. More clouds than sun.No wind88%30.43 "Hg7 mi
2:03 PM33 °FLight freezing rain. Fog.5 mph88%30.43 "Hg3 mi
1:54 PM33 °FLight freezing rain. Fog.No wind85%30.46 "Hg2 mi
12:54 PM33 °FLight freezing rain. Mostly cloudy.6 mph85%30.49 "Hg8 mi
11:54 AM32 °FLight freezing rain. Mostly cloudy.6 mph85%30.53 "Hg8 mi
10:54 AM31 °FLight freezing rain. Ice fog.3 mph85%30.57 "Hg2 mi
10:03 AM30 °FLight freezing rain. Ice fog.5 mph89%30.56 "Hg2 mi
Weather by CustomWeather, © 2015

See weather overviewHow to use our weather pages